Regional Weather Roundup
Issued by NWS Wakefield, VA

Home | Current Version | Previous Version | Graphics & Text | Print | Product List | Glossary On
Versions: 1 2 3 4 5 6 7 8 9 10 11 12 13 14 15 16 17 18 19 20 21 22 23 24 25 26 27 28 29 30 31 32 33 34 35 36 37 38 39 40 41 42 43 44 45 46 47 48 49 50
000
ASUS41 KAKQ 242115
RWRAKQ

REGIONAL WEATHER ROUNDUP
NATIONAL WEATHER SERVICE WAKEFIELD VA
500 PM EDT FRI MAR 24 2017

Note: "fair" indicates few or no clouds below 12,000 feet with no
significant weather and/or obstructions to visibility. * = Denotes
station may not report precipitation (e.g., rain,snow,etc.),
thunder or fog.

VAZ042-051-052>054-056-242200-
NORTHERN VIRGINIA

CITY           SKY/WX    TMP DP  RH WIND       PRES   REMARKS
WASH NATIONAL  CLOUDY    61  36  39 S21       30.22F
DULLES         CLOUDY    60  36  40 S12       30.21F
FORT BELVOIR   MOSUNNY   61  34  36 S12       30.22F
QUANTICO       CLOUDY    60  39  45 SW15G21   30.25F
FREDERICKSBRG* CLOUDY    64  40  40 SW10G21   30.24F
STAFFORD*      CLOUDY    62  36  38 S15       30.28F
WARRENTON      CLOUDY    64  31  29 S13G21    30.22F
CULPEPER*      SUNNY     64  38  39 S10G21    30.23F
MANASSAS*      CLOUDY    62  37  39 S14G20    30.22F
LEESBURG*      CLOUDY    61  41  48 S16       30.21F
WINCHESTER     CLOUDY    63  41  45 S9        30.16F
FRONT ROYAL*     N/A    N/A N/A N/A MISG        N/A
LURAY*         CLOUDY    68  43  40 SW17      30.18F
$$

VAZ048-049-060>072-079>083-242200-
CENTRAL AND SOUTH CENTRAL VIRGINIA

CITY           SKY/WX    TMP DP  RH WIND       PRES   REMARKS
RICHMOND       CLOUDY    70  44  39 SW20G26   30.27F
CHESTERFIELD*  FAIR     N/A N/A N/A SW9G22    30.29F
PETERSBURG*    SUNNY     68  43  39 SW14      30.30F
HANOVER        SUNNY     69  43  38 SW17G24   30.27F
TAPPAHANNOCK*  SUNNY     69  21  16 SW12G22   30.27F
QUINTON*       FAIR      68  43  40 SW12G23   30.28F
CHARLOTTSVILLE SUNNY     69  38  32 SW14      30.23F
GORDONSVILLE*  PTCLDY    67  41  38 SW13      30.23F
ORANGE*        SUNNY     64  37  36 S10G17    30.25F
LOUISA*        SUNNY     70  46  43 SW12G20   30.23F
BUMPASS*       FAIR      66  43  43 SW18      30.25F
FARMVILLE*     MOSUNNY   71  47  42 SW15G23   30.26F
CREWE*         FAIR      69  47  44 S14G20    30.29F
FORT PICKETT*  FAIR      69  37  30 SW16G28   30.30F
CHASE CITY*    FAIR      68  44  41 SW8G17    30.32F
CLARKSVILLE*   FAIR      68  46  45 SW9G21    30.32F
SOUTH HILL*    SUNNY     68  48  49 SW14G21   30.38F
LAWRENCEVILLE* FAIR      68  45  42 S13G22    30.31F
EMPORIA*       SUNNY     68  45  42 S13       30.34F
$$

VAZ088>098-242200-
SOUTHEAST VIRGINIA

CITY           SKY/WX    TMP DP  RH WIND       PRES   REMARKS
NORFOLK        CLOUDY    68  42  38 SW15      30.31F
VIRGINIA BEACH PTSUNNY   67  40  37 SW16      30.32F
NORFOLK NAVAL  MOSUNNY   70  42  36 SW17G25   30.32F
WEST POINT*    SUNNY     69  39  33 SW10G22   30.29F
SALUDA*        FAIR      67  40  37 SW7G21    30.28F
NEWPORT NEWS   MOSUNNY   68  43  40 SW18      30.31F
LANGLEY AFB    CLOUDY    69  45  42 SW23      30.30F
FORT EUSTIS    SUNNY     69  45  42 SW10G18   30.28F
WILLIAMSBURG*  SUNNY     72  46  40 SW12      30.30F
HR EXEC AP*    FAIR      70  45  40 SW16G24   30.31F
FRANKLIN*      SUNNY     69  44  41 SW14G21   30.34F
US460-WAKEFLD  SUNNY     69  45  41 S15G22    30.31F
$$

VAZ020-022-025-037-045-242200-
WEST CENTRAL AND SOUTHWEST VIRGINIA

CITY           SKY/WX    TMP DP  RH WIND       PRES   REMARKS
STAUNTON*      CLOUDY    67  40  36 S13G20    30.23S
WAYNESBORO*    CLOUDY    68  41  37 S10G18    30.22F
HOT SPRINGS VA CLOUDY    63  28  27 S8        30.29S
LYNCHBURG      SUNNY     67  44  43 S14       30.29F
DANVILLE       SUNNY     68  46  45 S9G22     30.32F
SOUTH BOSTON*  FAIR      70  44  40 SW12G17   30.32F
MARTINSVILLE   MOSUNNY   68  44  41 SW6       30.34F
ROANOKE        MOSUNNY   70  42  36 SE7       30.28F
BLACKSBURG     SUNNY     69  45  41 SW9       30.31F
DUBLIN*        PTSUNNY   70  44  38 SW9       30.29F
MARION*        PTSUNNY   69  47  43 SW8       30.32F
HILLSVILLE*    SUNNY     64  45  50 S6        30.31F
RICHLANDS*     FAIR      66  46  49 CALM      30.29F
WISE*          SUNNY     70  43  37 S9G16     30.29F
ABINGDON*      SUNNY     72  46  39 W8        30.28F
$$

MDZ021>025-VAZ099-100-242200-
SOUTHERN MARYLAND AND THE DELMARVA PENINSULA

CITY           SKY/WX    TMP DP  RH WIND       PRES   REMARKS
PATUXENT RIVER CLOUDY    65  40  39 SW17G25   30.24F
BAY BRIDGE APT CLOUDY    59  36  41 S10G16    30.22F
LEONARDTOWN    SUNNY     64  34  32 SW15G21   30.25F
DOVER          CLOUDY    58  36  43 S22       30.21F
GEORGETOWN     MOSUNNY   61  32  33 SW20G31   30.25F
EASTON         CLOUDY    59  32  36 SW14G20   30.26F
CAMBRIDGE      SUNNY     59  37  44 S13       30.25F
SALISBURY      CLOUDY    62  36  37 S18G26    30.26F
OCEAN CITY     CLOUDY    51  41  68 S10G21    30.30F
WALLOPS ISLAND CLOUDY    54  44  69 S18       30.32F
ACCOMACK*      SUNNY     58  44  58 S8        30.32F
$$

NCZ012>017-030>032-242200-
NORTH CENTRAL AND EASTERN NORTH CAROLINA

CITY           SKY/WX    TMP DP  RH WIND       PRES   REMARKS
ROANOKE RAPIDS FAIR      68  46  45 SW16G22   30.34F
RALEIGH        MOSUNNY   70  46  42 S15G22    30.36F
ELIZABETH CITY SUNNY     68  43  40 SW16G23   30.36F
AHOSKIE*         N/A     69  47  46 SW3       30.35F
EDENTON*       SUNNY     70  45  40 SW12      30.36F
CURRITUCK*     CLOUDY    69  42  37 SW15G22   30.35F
KILL DEVIL HLS NOT AVBL
MANTEO         SUNNY     63  47  56 SW20      30.38F
CAPE HATTERAS  SUNNY     65  50  58 SW8       30.43F
TARBORO*       NOT AVBL
GOLDSBORO      MOSUNNY   73  43  33 SW13      30.35F
WASHINGTON     SUNNY     71  44  37 W8G16     30.37F
GREENVILLE     SUNNY     72  45  37 SW10G18   30.37F
NEW BERN       MOSUNNY   69  47  45 S15       30.41F
WILMINGTON     SUNNY     69  50  50 S16G25    30.41F
$$

VAZ048-242200-
ELSEWHERE

CITY           SKY/WX    TMP DP  RH WIND       PRES   REMARKS
HARRISBURG PA  CLOUDY    57  40  52 VRB5      30.13F
BALTIMORE      CLOUDY    59  34  39 SW13      30.19F
ANNAPOLIS      MOSUNNY   60  37  42 S10       30.21F
ANDREWS AFB    CLOUDY    60  35  38 S18       30.21F
PHILADELPHIA   CLOUDY    58  33  39 SW20      30.19F
HENDERSON NC   SUNNY     66  44  44 SW12G23   30.33F
GREENSBORO     MOSUNNY   67  46  47 W14G22    30.34F
ROCKY MOUNT    SUNNY     70  47  43 S12G22    30.36F
$$

VAZ100-242200-
MARINE

STATION/POSITION TIME  TEMP    WIND        PRES    WAVE   SWELL
                       AIR SEA DIR/SP/G            HT/PER HT/PER
                 (UTC) (F)     (DEG/KT/KT) (MB)    (FT/S) (FT/S)
CAPE MAY NJ      2048   49 44  180/ 13/ 19 1023.8F
LEWES DE         2036   61 42  230/ 15/ 21 1024.3F
OCEAN-CITY-INLET 2036   46 44  220/ 17/ 20 1026.8F
WACHAPREAGUE VA  2048   53 51  220/  8/ 11 1026.5F
THOMAS POINT MD  2100   48 44  170/ 19/ 20   N/A
GOOSES REEF MD   2100   48 44  170/ 16/ 17 1024.2    1/ 3
COVE POINT MD    2048   47     170/ 14/ 16 1024.9F
SOLOMONS ISLAND  2042   61 45  230/ 10/ 15   N/A
BISHOPS HEAD MD  2048   50 48  160/ 11/ 12 1025.3F
PINEY POINT MD   2048          250/  7/ 12   N/A
POTOMAC MD       2100   57 46  260/ 10/ 12 1023.8    2/ 3
CAMBRIDGE MD     2048   58 44  180/  9/ 13 1023.6F
LEWISETTA VA     2048   65 47  240/ 18/ 22 1024.2F
RAPPAHANNOCK LGT 2048          180/ 14/ 16 1026.6F
STINGRAY PT      2050   59     250/ 12/ 16 1026.7F
YORK RVR RNG VA  2048   63     240/ 18/ 20 1025.3F
YORKTOWN VA      2048   66 48  230/ 14/ 25 1025.6F
JAMESTOWN VA     2100   65 51  230/ 14/ 19   N/A
DOMINION TERM VA 2048   62     240/ 13/ 16 1026.7F
KIPTOPEKE VA     2042      48  180/  7/  8   N/A
CHES BAY BRIDGE  2048   63 48  240/ 17/ 19 1026.4F
CAPE HENRY VA    2048   66     210/  7/ 11   N/A
WILLOUBY STN VA  2048   61     250/ 16/ 17 1027.1F
S CRANEY ISL VA  2048   68     240/ 13/ 18 1026.5F
CAPE HENRY BUOY  2042      47                N/A     3/11
CAPE CHARLES BUO 2051      47                N/A     3/ 3
OFFSHORE WE BUOY 2051      46                N/A     3/10
64NM E OF VA BCH 2050   54 51  190/ 14/ 16 1028.4F   3/ 8   2/ 8
DUCK PIER NC     2048   63 47  200/ 10/ 13 1027.8F
44100 DUCK FRF   2035      50                N/A     2/11   2/11
44056 DUCK FRF   2030      51                N/A     2/ 9
OREGON INLET NC  2042   57 52  180/ 14/ 15 1029.4F
HATTERAS NC      2042   63 54  220/  8/ 12 1030.2F
DIAMOND SHLS NC  2050   65 74  210/ 16/ 21 1030.5F   4/10   3/10
CAPE LOOKOUT NC  2000   66     200/ 13/ 16 1030.4F
$$



USA.gov is the U.S. government's official web portal to all federal, state and local government web resources and services.